Regional Weather Roundup
Issued by NWS

Home | Current Version | Previous Version | Graphics & Text | Print | Product List | Glossary On
Versions: 1 2 3 4 5 6 7 8 9 10 11 12 13 14 15 16 17 18 19 20 21 22 23 24 25 26 27 28 29 30 31 32 33 34 35 36 37 38 39 40 41 42 43 44 45 46 47 48 49 50
000
ASUS43 KFSD 221210
RWRSD

WEATHER ROUNDUP FOR SOUTH DAKOTA
NATIONAL WEATHER SERVICE SIOUX FALLS SD
600 AM CST MON DEC 22 2014

NOTE: "FAIR" INDICATES FEW OR NO CLOUDS BELOW 12,000 FEET WITH NO
SIGNIFICANT WEATHER AND/OR OBSTRUCTIONS TO VISIBILITY.


SDZ001>005-009-010-012>017-221300-
NORTHWEST AND NORTH CENTRAL SOUTH DAKOTA

CITY           SKY/WX    TMP DP  RH WIND       PRES   REMARKS
BUFFALO          N/A     36  28  73 NW29G38   29.44R
FAITH            N/A     37  31  78 NW22      29.46S
MOBRIDGE       CLOUDY    30  28  92 CALM      29.40S FOG
$$

SDZ012>016-024>037-041>051-057-063-072>074-221300-
SOUTHWEST AND SOUTH CENTRAL SOUTH DAKOTA

CITY           SKY/WX    TMP DP  RH WIND       PRES   REMARKS
RAPID CTY ARPT CLOUDY    42  23  46 NW26G43   29.52S
PIERRE         CLOUDY    38  34  85 SW8       29.42F
CUSTER         LGT SNOW  29  23  78 W18G26    29.53F WCI  16
ELLSWORTH AFB  PTCLDY    41  25  52 NW35G45   29.50
PHILIP         CLOUDY    38  32  79 NW18      29.49S
PINE RIDGE     CLOUDY    36  31  82 W6        29.57F
SPEARFISH      FAIR      36  27  69 W26G35    29.57R
WINNER         CLOUDY    38  35  89 W14       29.46S
$$

SDZ004>011-016>023-039-040-221300-
NORTHEAST SOUTH DAKOTA

CITY           SKY/WX    TMP DP  RH WIND       PRES   REMARKS
ABERDEEN       FOG       34  33  96 CALM      29.42S VSB 1/4
WATERTOWN      MIX PCPN  36  35  96 S9        29.43F
SISSETON         N/A     35  35 100 S8        29.45S WCI  29
$$

SDZ017-020-022-023-036>040-048>070-221300-
SOUTHEAST SOUTH DAKOTA

CITY           SKY/WX    TMP DP  RH WIND       PRES   REMARKS
SIOUX FALLS    LGT RAIN  40  39  97 S12       29.46F
HURON          CLOUDY    33  32  96 NW7       29.43F FOG     WCI  27
CHAMBERLAIN    RAIN      32  32  99 NW6       29.44S WCI  27
MITCHELL       CLOUDY    36  36 100 SW5       29.44F FOG
YANKTON        CLOUDY    39  37  93 S5        29.47S
$$

ABBREVIATIONS USED IN REMARKS
   TC - TEMPERATURE IN CELSIUS
  WCI - WIND CHILL INDEX
   HX - HEAT INDEX
  VSB - VISIBILITY




USA.gov is the U.S. government's official web portal to all federal, state and local government web resources and services.